Location: Unspecified
(0.0000°N, 0.0000°E)
Time: 08:46:26
(UTC+00:00)

MANDRAKE 2 BAKER - Pass Details

Date: 14 February 2026
Orbit: 402 x 407 km, 97.7° (Epoch: 7 March)

Event Time Altitude Azimuth Distance (km) Brightness Sun altitude
Rises 05:39:33 0° 175° (S) 2,340 ? -8.4°
Reaches altitude 10° 05:41:34 10° 179° (S) 1,474 ? -7.9°
Maximum altitude 05:44:40 58° 259° (WSW) 481 ? -7.2°
Drops below altitude 10° 05:47:44 10° 339° (NNW) 1,459 ? -6.4°
Sets 05:49:43 0° 343° (NNW) 2,313 ? -6.0°
